When you browse on this site, cookies collect data to enhance your experience and personalize the content and advertising you see.
Visit our Privacy Policy to learn more. By continuing to use the site, you agree to this use of cookies and data.
  • In Switzerland
  • List of Countries
  • For 7 days
  • Water Temperature
  • Weather Map
  • Weather Widgets
  • user-avatar
    Login

    Hourly Weather Pirmasens

    Today, 29 May, Friday

    Time Temperature Precipitation Wind Pressure Humidity
    00:00 +9°C° 0 mm 2 mps 737 mmHg 68%
    01:00 +9°C° 0 mm 2 mps 737 mmHg 70%
    02:00 +8°C° 0 mm 2 mps 736 mmHg 74%
    03:00 +8°C° 0 mm 2 mps 736 mmHg 77%
    04:00 +7°C° 0 mm 2 mps 736 mmHg 80%
    05:00 +8°C° 0 mm 2 mps 736 mmHg 77%
    06:00 +10°C° 0 mm 3 mps 736 mmHg 74%
    07:00 +11°C° 0 mm 3 mps 736 mmHg 69%
    08:00 +13°C° 0 mm 3 mps 736 mmHg 63%
    09:00 +14°C° 0 mm 4 mps 736 mmHg 58%
    10:00 +17°C° 0 mm 4 mps 736 mmHg 52%
    11:00 +18°C° 0 mm 4 mps 735 mmHg 51%
    12:00 +19°C° 0 mm 4 mps 735 mmHg 49%
    13:00 +19°C° 0 mm 4 mps 735 mmHg 47%
    14:00 +19°C° 0 mm 4 mps 735 mmHg 48%
    15:00 +19°C° 0 mm 4 mps 734 mmHg 49%
    16:00 +19°C° 0 mm 4 mps 734 mmHg 49%
    17:00 +18°C° 0 mm 4 mps 733 mmHg 54%
    18:00 +17°C° 0 mm 3 mps 733 mmHg 59%
    19:00 +16°C° 0 mm 3 mps 733 mmHg 63%
    20:00 +14°C° 0 mm 3 mps 733 mmHg 63%
    21:00 +12°C° 0 mm 3 mps 733 mmHg 64%
    22:00 +11°C° 0 mm 3 mps 733 mmHg 64%
    23:00 +10°C° 0 mm 3 mps 733 mmHg 66%

    Tomorrow, 30 May, Saturday

    Time Temperature Precipitation Wind Pressure Humidity
    00:00 +10°C° 0 mm 3 mps 733 mmHg 68%
    01:00 +9°C° 0 mm 3 mps 733 mmHg 70%
    02:00 +9°C° 0 mm 3 mps 733 mmHg 72%
    03:00 +8°C° 0 mm 3 mps 733 mmHg 74%
    04:00 +8°C° 0 mm 3 mps 733 mmHg 76%
    05:00 +9°C° 0 mm 3 mps 733 mmHg 73%
    06:00 +10°C° 0 mm 4 mps 733 mmHg 71%
    07:00 +11°C° 0 mm 4 mps 734 mmHg 69%
    08:00 +13°C° 0 mm 4 mps 734 mmHg 63%
    09:00 +14°C° 0 mm 5 mps 734 mmHg 57%
    10:00 +16°C° 0 mm 5 mps 734 mmHg 52%
    11:00 +16°C° 0 mm 5 mps 733 mmHg 49%
    12:00 +17°C° 0 mm 5 mps 733 mmHg 46%
    13:00 +19°C° 0 mm 5 mps 733 mmHg 43%
    14:00 +19°C° 0 mm 5 mps 733 mmHg 44%
    15:00 +19°C° 0 mm 5 mps 732 mmHg 45%
    16:00 +19°C° 0 mm 5 mps 732 mmHg 46%
    17:00 +17°C° 0 mm 5 mps 732 mmHg 51%
    18:00 +15°C° 0 mm 5 mps 732 mmHg 56%
    19:00 +14°C° 0 mm 5 mps 732 mmHg 60%
    20:00 +13°C° 0 mm 4 mps 732 mmHg 63%
    21:00 +11°C° 0 mm 3 mps 732 mmHg 65%
    22:00 +9°C° 0 mm 3 mps 733 mmHg 68%
    23:00 +9°C° 0 mm 3 mps 733 mmHg 70%

    Day after tomorrow, 31 May, Sunday

    Time Temperature Precipitation Wind Pressure Humidity
    00:00 +8°C° 0 mm 3 mps 732 mmHg 72%
    01:00 +8°C° 0 mm 3 mps 732 mmHg 74%
    02:00 +7°C° 0 mm 2 mps 732 mmHg 77%
    03:00 +7°C° 0 mm 2 mps 732 mmHg 80%
    04:00 +6°C° 0 mm 2 mps 732 mmHg 83%
    05:00 +8°C° 0 mm 2 mps 732 mmHg 79%
    06:00 +9°C° 0 mm 3 mps 732 mmHg 75%
    07:00 +11°C° 0 mm 3 mps 732 mmHg 71%
    08:00 +12°C° 0 mm 4 mps 733 mmHg 68%
    09:00 +13°C° 0 mm 4 mps 733 mmHg 64%
    10:00 +15°C° 0 mm 4 mps 733 mmHg 61%
    11:00 +15°C° 0 mm 4 mps 732 mmHg 58%
    12:00 +17°C° 0 mm 4 mps 732 mmHg 54%
    13:00 +17°C° 0 mm 4 mps 732 mmHg 51%
    14:00 +18°C° 0 mm 4 mps 732 mmHg 50%
    15:00 +18°C° 0 mm 4 mps 732 mmHg 49%
    16:00 +18°C° 0 mm 4 mps 732 mmHg 47%
    17:00 +18°C° 0 mm 4 mps 732 mmHg 53%
    18:00 +17°C° 0 mm 4 mps 732 mmHg 58%
    19:00 +16°C° 0 mm 3 mps 732 mmHg 64%
    20:00 +13°C° 0 mm 3 mps 732 mmHg 67%
    21:00 +12°C° 0 mm 3 mps 732 mmHg 70%
    22:00 +10°C° 0 mm 2 mps 732 mmHg 74%
    23:00 +10°C° 0 mm 2 mps 732 mmHg 76%

    1 June, Monday

    Time Temperature Precipitation Wind Pressure Humidity
    00:00 +10°C° 0 mm 2 mps 732 mmHg 78%
    01:00 +9°C° 0 mm 3 mps 732 mmHg 81%
    02:00 +9°C° 0 mm 3 mps 732 mmHg 83%
    03:00 +9°C° 0 mm 3 mps 732 mmHg 85%
    04:00 +8°C° 0 mm 3 mps 732 mmHg 87%
    05:00 +10°C° 0 mm 3 mps 732 mmHg 83%
    06:00 +11°C° 0 mm 3 mps 732 mmHg 80%
    07:00 +12°C° 0 mm 4 mps 732 mmHg 76%
    08:00 +14°C° 0 mm 4 mps 732 mmHg 70%
    09:00 +17°C° 0 mm 4 mps 732 mmHg 65%
    10:00 +19°C° 0 mm 5 mps 732 mmHg 59%
    11:00 +20°C° 0 mm 5 mps 732 mmHg 57%
    12:00 +21°C° 0 mm 5 mps 732 mmHg 54%
    13:00 +22°C° 0 mm 5 mps 731 mmHg 52%
    14:00 +22°C° 0 mm 5 mps 731 mmHg 52%
    15:00 +22°C° 0 mm 4 mps 731 mmHg 52%
    16:00 +23°C° 0 mm 4 mps 731 mmHg 51%
    17:00 +21°C° 0 mm 4 mps 731 mmHg 57%
    18:00 +20°C° 0 mm 3 mps 731 mmHg 62%
    19:00 +19°C° 0 mm 3 mps 731 mmHg 68%
    20:00 +18°C° 0 mm 2 mps 731 mmHg 70%
    21:00 +16°C° 0 mm 2 mps 731 mmHg 73%
    22:00 +15°C° 0 mm 2 mps 731 mmHg 75%
    23:00 +14°C° 0 mm 2 mps 731 mmHg 78%

    2 June, Tuesday

    Time Temperature Precipitation Wind Pressure Humidity
    00:00 +14°C° 0 mm 2 mps 730 mmHg 80%
    01:00 +13°C° 0 mm 2 mps 730 mmHg 83%
    02:00 +12°C° 0 mm 2 mps 730 mmHg 85%
    03:00 +12°C° 0 mm 2 mps 730 mmHg 88%
    04:00 +10°C° 0 mm 2 mps 730 mmHg 90%
    05:00 +12°C° 0 mm 2 mps 730 mmHg 85%
    06:00 +14°C° 0 mm 2 mps 730 mmHg 81%
    07:00 +14°C° 0 mm 3 mps 730 mmHg 76%
    08:00 +16°C° 0 mm 3 mps 729 mmHg 70%
    09:00 +18°C° 0 mm 3 mps 729 mmHg 64%
    10:00 +19°C° 0 mm 4 mps 729 mmHg 58%
    11:00 +20°C° 0 mm 3 mps 729 mmHg 55%
    12:00 +21°C° 0 mm 3 mps 728 mmHg 53%
    13:00 +22°C° 0 mm 3 mps 728 mmHg 50%
    14:00 +22°C° 0 mm 3 mps 727 mmHg 50%
    15:00 +22°C° 0 mm 3 mps 727 mmHg 50%
    16:00 +24°C° 0 mm 2 mps 726 mmHg 50%
    17:00 +23°C° 0 mm 2 mps 726 mmHg 56%
    18:00 +21°C° 0 mm 2 mps 725 mmHg 63%
    19:00 +21°C° 0 mm 1 mps 724 mmHg 69%
    20:00 +19°C° 0 mm 1 mps 724 mmHg 72%
    21:00 +18°C° 0 mm 1 mps 724 mmHg 76%
    22:00 +15°C° 0 mm 1 mps 724 mmHg 79%
    23:00 +15°C° 0 mm 1 mps 723 mmHg 83%

    3 June, Wednesday

    Time Temperature Precipitation Wind Pressure Humidity
    00:00 +14°C° 0 mm 1 mps 723 mmHg 86%
    01:00 +12°C° 0 mm 0 mps 722 mmHg 90%
    02:00 +12°C° 0 mm 0 mps 722 mmHg 90%
    03:00 +12°C° 0 mm 0 mps 721 mmHg 91%
    04:00 +12°C° 0 mm 0 mps 721 mmHg 92%
    05:00 +13°C° 0 mm 0 mps 721 mmHg 88%
    06:00 +14°C° 0 mm 0 mps 721 mmHg 85%
    07:00 +15°C° 0 mm 0 mps 720 mmHg 82%
    08:00 +19°C° 0.1 mm 1 mps 720 mmHg 78%
    09:00 +19°C° 0.1 mm 2 mps 720 mmHg 74%
    10:00 +20°C° 0.1 mm 2 mps 720 mmHg 70%
    11:00 +21°C° 0.9 mm 3 mps 720 mmHg 73%
    12:00 +21°C° 0.9 mm 3 mps 720 mmHg 76%
    13:00 +21°C° 0.9 mm 3 mps 719 mmHg 79%
    14:00 +20°C° 1.1 mm 3 mps 719 mmHg 81%
    15:00 +20°C° 1.1 mm 3 mps 719 mmHg 83%
    16:00 +20°C° 1.1 mm 3 mps 718 mmHg 85%
    17:00 +19°C° 1 mm 3 mps 718 mmHg 87%
    18:00 +19°C° 1 mm 3 mps 718 mmHg 89%
    19:00 +18°C° 1 mm 2 mps 718 mmHg 91%
    20:00 +17°C° 0.3 mm 2 mps 718 mmHg 92%
    21:00 +16°C° 0.3 mm 2 mps 718 mmHg 93%
    22:00 +15°C° 0.3 mm 2 mps 718 mmHg 94%
    23:00 +14°C° 0 mm 2 mps 718 mmHg 95%
    Show more